Wind_Speed
10 9 9 9 9 8 7 6 6 7 7 7 7 6 6 5 5 5 4 4 6 6 6 6 5 4 3 2 2 3 3 4 4 5 6 6 6 6 6 6 6 5 5 5 4 4 4 4 4
11 11 11 10 10 9 9 8 7 8 8 7 7 7 6 5 5 5 5 4 5 6 7 7 5 4 3 2 1 2 2 3 4 4 5 5 6 7 7 7 6 6 6 5 5 5 5 4 5
12 12 12 11 11 10 10 9 8 9 9 8 7 7 6 6 5 5 6 5 5 5 6 6 5 4 3 2 1 0 1 2 3 4 5 5 6 6 7 7 6 6 6 6 6 6 6 6 6
13 13 13 12 11 11 10 10 10 9 9 9 8 7 6 7 6 5 6 6 6 6 6 6 5 4 3 2 1 0 1 2 3 4 5 6 6 7 7 7 7 7 7 7 7 6 6 7 6
14 14 14 13 12 11 11 10 10 10 11 10 9 8 7 7 6 5 6 6 7 7 6 6 5 5 4 3 1 0 1 2 3 4 5 6 7 7 8 7 7 7 8 7 7 6 7 6 6
14 14 14 13 12 12 11 11 11 12 12 10 9 9 9 8 7 6 6 7 8 8 7 7 6 4 4 3 2 0 1 2 3 4 4 5 6 7 8 8 8 8 7 7 6 6 6 6 6
15 14 14 13 13 13 12 12 11 12 11 11 11 10 9 8 8 8 8 8 8 9 8 7 6 5 4 3 2 0 1 2 3 4 4 6 7 7 8 8 8 8 7 6 6 7 7 7 7
14 14 14 14 14 13 13 13 13 13 12 11 11 10 10 9 9 9 9 10 10 10 9 8 7 6 5 4 3 1 1 3 3 4 5 6 7 7 8 8 8 8 7 6 6 6 7 7 7
14 14 15 14 13 13 13 13 13 13 11 11 11 10 10 10 9 9 10 11 10 10 10 9 8 7 6 5 3 2 1 2 4 4 5 6 7 8 8 8 8 7 6 6 6 6 6 7 8
13 15 15 14 14 13 13 13 12 12 12 12 11 11 11 11 10 10 11 11 11 10 10 10 9 7 7 5 4 3 2 2 3 4 5 6 7 7 8 8 8 6 6 6 6 6 7 7 8
12 14 14 14 14 13 13 13 13 13 12 12 11 12 12 13 12 11 11 11 12 11 11 10 9 8 7 6 4 3 2 3 4 4 5 6 7 7 8 8 7 6 6 6 6 6 6 7 7
12 13 13 13 14 14 14 13 14 13 12 11 11 12 13 13 13 11 12 12 12 10 10 10 9 9 7 6 5 3 3 3 4 5 5 6 7 7 7 7 6 6 6 6 6 6 6 6 6
13 13 13 13 14 14 14 14 14 13 13 12 12 13 14 13 13 12 12 12 12 11 10 10 9 9 8 6 5 4 4 4 4 4 5 6 7 7 7 6 6 6 6 6 6 6 6 5 6
13 14 14 14 14 14 15 15 14 14 14 13 13 14 14 14 14 13 12 12 12 12 11 10 9 9 8 7 5 4 4 4 4 4 5 6 7 7 6 7 7 7 6 6 6 6 5 4 4
14 14 15 14 14 14 14 14 15 15 15 14 14 14 15 14 14 13 13 12 12 11 11 10 9 9 8 7 5 4 4 4 4 5 6 6 7 6 6 7 7 7 6 6 6 5 5 4 3
14 13 14 13 13 14 14 14 15 15 14 14 13 14 15 15 14 14 13 12 12 11 10 10 8 7 7 6 5 4 4 4 4 6 6 7 7 6 6 6 7 6 6 5 5 4 4 3 2
13 13 13 13 13 12 13 13 14 15 15 14 13 13 13 14 14 14 14 13 13 12 10 9 8 7 7 6 5 5 4 4 4 5 6 6 6 6 6 6 6 6 5 5 4 4 4 3 2
11 12 12 12 12 12 12 13 14 15 15 14 14 13 13 14 14 14 14 14 13 12 10 9 8 8 7 7 6 5 4 4 4 4 5 6 6 6 5 5 6 6 5 5 5 4 4 3 2
10 11 11 12 11 12 12 13 15 16 16 16 15 14 15 15 14 14 14 13 13 13 11 10 9 8 7 7 6 5 4 4 4 4 4 5 5 5 5 5 5 5 5 5 4 4 3 3 2
10 11 11 12 12 12 13 13 15 16 17 16 16 16 16 15 15 15 15 14 14 13 12 11 10 9 7 7 7 6 5 4 3 3 4 4 4 4 4 4 5 4 5 4 4 4 4 3 2
9 10 11 12 12 13 13 13 13 15 16 16 16 16 16 16 15 15 15 15 15 14 13 12 10 10 8 7 7 6 5 4 3 3 3 3 3 4 4 4 4 4 4 4 4 4 4 4 3
10 10 10 11 11 12 12 12 13 14 15 15 15 17 16 16 16 16 16 16 16 15 14 13 11 10 9 8 7 6 6 5 4 3 3 3 3 3 3 3 3 4 4 4 4 4 4 3 3
10 10 10 10 11 11 12 12 13 14 14 14 15 16 16 17 16 16 16 17 17 15 15 13 13 11 10 8 7 7 6 5 5 3 3 2 2 2 3 3 3 3 4 4 4 4 3 3 2
10 10 10 10 10 10 11 11 12 13 13 14 15 15 16 16 17 17 17 17 17 16 15 14 13 11 10 9 8 7 7 6 5 4 3 3 2 2 2 2 2 3 3 4 3 3 3 3 3
8 10 10 10 10 10 10 11 11 12 13 14 14 14 15 16 17 16 17 17 17 16 15 15 13 12 11 10 9 8 7 7 6 5 4 4 3 2 2 3 3 3 3 3 3 3 3 3 2
8 9 10 10 10 9 10 10 11 13 13 14 14 14 15 16 16 16 17 18 17 17 16 16 14 13 11 11 10 9 7 7 7 6 5 4 4 3 3 3 3 3 3 4 4 3 3 3 3
8 9 9 9 9 9 9 9 10 12 13 14 14 14 15 15 16 16 16 17 17 17 17 17 16 14 13 12 11 9 8 8 7 7 6 5 4 4 4 4 4 4 4 4 4 4 4 4 3
8 8 9 9 9 9 8 8 10 12 13 13 14 15 15 15 15 15 16 18 18 18 18 17 16 15 14 13 11 10 9 8 8 8 7 5 5 4 5 5 5 5 5 5 5 4 4 3 3
9 9 9 9 10 10 9 8 9 10 12 12 14 14 15 15 15 16 17 17 18 18 18 18 16 15 14 13 12 11 11 9 8 8 7 6 6 5 6 6 6 6 6 6 5 5 4 4 3
10 10 10 10 10 10 10 9 10 10 11 12 14 14 14 14 15 16 17 18 18 18 18 17 16 16 15 14 13 13 11 10 9 9 8 7 7 7 7 7 7 7 7 6 6 5 5 5 5
Wind_Direction
253 247 242 241 242 238 238 235 230 217 205 203 202 201 197 193 189 187 188 190 187 176 174 180 187 174 160 132 101 75 50 34 26 15 10 1 358 356 349 344 338 331 324 316 308 300 298 292 281
250 247 244 241 241 240 239 234 232 220 214 205 205 203 199 198 190 189 184 176 187 185 181 182 183 179 167 152 128 70 36 26 12 6 4 357 352 351 345 339 334 328 320 311 302 294 288 287 281
248 245 244 241 239 237 235 229 224 223 214 207 206 204 201 198 190 185 177 181 184 182 179 179 177 184 189 181 163 86 18 1 356 359 358 348 346 343 340 335 332 326 319 309 299 291 283 278 275
248 244 242 240 238 236 232 227 219 218 218 213 208 204 204 200 190 183 183 187 183 180 177 176 173 186 186 191 189 189 349 358 1 357 350 342 343 342 338 334 331 325 316 307 297 290 284 280 275
248 241 238 237 235 233 227 225 222 218 219 218 212 208 204 200 195 194 196 196 194 186 179 179 179 184 185 177 156 339 349 2 359 353 340 340 343 344 341 334 330 325 315 307 299 289 281 277 271
248 241 236 234 232 229 225 225 222 220 219 218 214 213 211 206 206 208 208 203 195 187 184 184 183 193 187 180 160 95 345 347 354 2 352 348 342 339 338 333 329 324 316 307 299 290 280 274 269
246 241 233 230 229 226 225 224 223 220 216 216 213 211 207 202 206 207 211 202 195 190 189 191 194 190 191 201 203 254 340 349 349 353 353 348 342 339 339 335 329 322 316 308 299 293 283 275 271
242 237 231 227 225 225 222 224 228 223 215 215 214 206 208 204 206 206 207 194 198 196 195 198 192 189 193 198 207 220 314 335 347 351 354 347 341 340 338 335 328 322 316 308 301 292 283 274 268
238 233 230 226 224 224 222 224 226 224 216 212 213 213 209 206 207 210 205 196 195 197 198 196 192 192 193 198 207 217 271 323 346 346 347 343 342 343 339 335 329 321 314 309 303 294 283 274 267
233 230 228 227 224 225 224 226 225 221 219 211 208 214 211 208 206 209 206 202 200 197 196 192 193 193 196 201 207 226 257 311 330 333 338 337 339 340 337 335 335 326 317 311 305 296 285 275 269
235 232 230 227 225 224 223 224 225 219 218 214 209 211 214 211 208 210 207 205 200 196 191 190 193 195 198 202 209 225 266 305 316 319 326 333 334 336 335 335 335 331 323 316 309 301 292 282 274
235 233 229 227 224 223 225 225 224 220 219 218 216 210 209 212 209 208 204 201 203 200 195 191 193 196 199 208 219 235 268 295 310 323 330 330 331 333 337 335 332 329 322 318 314 309 302 292 279
231 231 229 229 226 223 223 224 221 221 219 218 217 214 207 209 209 207 202 197 199 199 195 191 196 200 205 217 226 237 265 292 308 318 323 327 329 331 335 336 335 332 325 321 313 312 307 297 285
228 229 228 227 225 225 226 223 220 221 219 219 217 215 211 206 205 205 203 195 194 193 197 197 200 208 208 214 223 237 262 285 301 312 318 323 326 329 332 335 336 333 328 325 320 316 316 308 288
227 227 226 222 223 226 229 225 223 222 219 219 217 211 210 207 203 205 205 199 194 193 199 199 201 206 206 209 225 243 266 279 295 309 318 320 325 330 330 333 337 334 331 326 323 319 319 314 294
228 227 224 221 223 227 227 223 218 217 215 213 210 208 205 200 201 204 205 200 194 194 197 199 200 202 206 212 228 252 270 275 293 309 316 321 325 331 332 334 339 338 337 336 333 330 329 324 307
228 228 226 226 224 226 227 221 212 209 207 206 207 207 206 200 200 202 201 198 194 194 194 201 204 202 208 216 231 250 265 277 294 311 320 328 329 331 336 340 341 343 344 345 343 339 340 340 326
224 225 225 226 226 227 224 217 210 207 205 206 209 206 204 201 200 202 201 200 197 198 197 203 209 208 211 217 232 245 258 275 295 312 319 328 335 336 339 345 347 346 347 348 349 349 350 350 341
220 220 222 224 224 223 220 217 212 209 207 206 209 206 203 204 200 201 201 202 201 201 201 206 212 212 218 227 235 250 263 283 298 308 317 326 336 341 348 355 356 357 356 355 355 356 357 357 350
220 216 218 221 218 217 216 215 213 210 208 206 208 206 204 207 203 204 204 206 206 206 205 208 212 214 219 230 242 253 261 271 287 301 314 322 335 343 351 358 5 6 6 5 5 7 8 10 18
217 213 215 216 215 217 218 219 213 210 208 209 210 209 206 206 204 206 205 208 210 208 207 209 214 217 220 228 241 251 251 254 269 289 305 319 335 343 346 354 10 16 17 15 15 18 18 22 31
217 214 216 218 218 217 217 218 215 215 212 210 211 208 206 206 205 206 206 207 208 208 209 211 214 218 224 228 235 244 245 247 258 273 293 313 326 342 347 350 11 17 18 18 19 22 21 24 34
220 220 219 222 221 220 222 222 215 216 213 211 211 210 207 209 208 208 209 209 209 210 211 212 217 219 223 229 233 238 240 244 249 260 277 291 309 334 343 354 5 9 8 8 15 20 15 16 22
223 222 221 223 222 219 221 221 211 213 211 213 215 213 212 211 212 212 211 209 209 211 212 216 220 221 224 228 232 235 235 242 243 245 257 271 281 298 331 346 345 355 357 359 4 1 1 4 7
224 222 219 220 221 219 219 218 210 213 213 214 216 213 214 214 214 214 213 211 211 213 215 218 220 222 224 227 231 232 231 237 239 238 246 254 262 272 285 303 312 333 348 348 347 348 352 349 349
228 225 223 223 222 217 217 218 215 216 215 212 214 216 216 215 215 216 214 213 212 214 216 218 219 221 224 226 227 230 230 233 233 235 235 242 250 262 274 284 300 312 320 325 324 324 322 327 332
226 222 222 223 221 217 219 219 218 218 217 216 218 220 219 218 219 221 219 216 216 217 219 219 220 222 224 227 226 228 231 236 235 236 234 239 249 261 267 272 286 299 307 312 309 313 314 320 323
224 221 220 223 224 222 219 221 218 222 222 223 223 222 221 221 223 221 221 219 216 216 217 218 220 220 222 224 226 230 235 236 238 236 235 240 251 263 269 272 279 291 299 304 306 307 308 306 302
223 225 228 233 232 230 225 223 222 224 225 226 226 223 222 224 225 223 221 217 216 216 217 219 220 221 221 222 225 230 234 236 236 235 235 238 247 260 269 273 277 283 287 294 295 294 293 292 293
233 235 237 240 239 238 235 228 225 225 223 224 224 222 222 225 224 224 221 217 216 216 218 220 223 222 222 225 228 230 231 232 233 233 236 240 248 256 267 272 276 282 284 284 284 288 290 289 290
Height
5860 5861 5862 5864 5866 5866 5866 5868 5869 5870 5871 5873 5874 5875 5877 5878 5880 5883 5882 5881 5882 5883 5884 5885 5885 5886 5886 5887 5887 5887 5888 5888 5888 5887 5887 5887 5886 5886 5886 5886 5885 5885 5885 5885 5886 5886 5886 5886 5887
5858 5859 5862 5863 5864 5865 5866 5867 5868 5869 5871 5872 5873 5875 5876 5877 5878 5879 5880 5881 5882 5883 5884 5885 5886 5886 5887 5887 5887 5888 5888 5888 5888 5888 5887 5887 5887 5886 5886 5885 5885 5885 5884 5885 5885 5885 5886 5886 5886
5856 5858 5860 5861 5862 5863 5865 5866 5867 5868 5870 5871 5873 5874 5875 5876 5877 5878 5879 5881 5882 5883 5884 5885 5886 5886 5887 5887 5888 5888 5888 5888 5888 5887 5887 5887 5886 5886 5885 5885 5884 5884 5884 5884 5884 5884 5885 5885 5885
5854 5856 5858 5860 5860 5862 5863 5864 5866 5867 5869 5871 5872 5873 5874 5876 5877 5878 5879 5880 5881 5883 5884 5885 5886 5886 5887 5888 5888 5888 5888 5888 5888 5887 5887 5887 5886 5885 5885 5884 5883 5883 5882 5882 5883 5883 5883 5883 5884
5852 5853 5856 5857 5858 5860 5861 5863 5864 5866 5868 5869 5871 5872 5873 5875 5876 5877 5878 5880 5881 5882 5884 5885 5885 5886 5887 5887 5888 5888 5888 5888 5888 5887 5887 5887 5886 5885 5884 5883 5882 5882 5881 5881 5881 5881 5882 5882 5882
5849 5851 5853 5855 5857 5858 5860 5861 5863 5865 5866 5868 5870 5871 5872 5874 5875 5877 5878 5879 5880 5882 5883 5884 5885 5886 5887 5887 5888 5888 5888 5888 5888 5887 5887 5886 5886 5885 5883 5882 5881 5881 5880 5880 5880 5880 5880 5881 5881
5847 5848 5850 5852 5855 5857 5859 5860 5861 5863 5865 5867 5869 5870 5871 5873 5875 5876 5877 5878 5880 5881 5883 5884 5885 5886 5887 5887 5888 5888 5888 5888 5888 5887 5887 5886 5885 5884 5883 5882 5881 5880 5879 5879 5879 5878 5879 5879 5879
5843 5846 5848 5850 5852 5855 5857 5858 5860 5861 5863 5865 5867 5869 5871 5872 5874 5875 5876 5877 5879 5880 5882 5883 5885 5886 5887 5887 5888 5888 5888 5888 5887 5887 5886 5886 5885 5884 5882 5881 5880 5879 5878 5878 5877 5877 5877 5877 5878
5841 5845 5845 5848 5851 5853 5855 5857 5858 5859 5861 5864 5866 5868 5869 5871 5872 5874 5875 5876 5878 5879 5881 5883 5884 5885 5886 5887 5887 5887 5887 5887 5887 5886 5886 5885 5884 5883 5882 5880 5879 5878 5877 5877 5876 5876 5876 5876 5876
5839 5841 5843 5846 5849 5851 5853 5855 5857 5858 5860 5862 5864 5866 5867 5869 5871 5872 5874 5875 5877 5878 5880 5882 5883 5885 5886 5886 5887 5887 5887 5887 5886 5886 5885 5885 5884 5882 5881 5880 5878 5877 5876 5876 5875 5874 5874 5874 5874
5837 5839 5841 5843 5846 5849 5851 5853 5855 5856 5858 5861 5863 5865 5866 5867 5869 5871 5873 5874 5876 5877 5879 5881 5882 5884 5885 5886 5886 5887 5887 5886 5886 5885 5885 5884 5883 5882 5880 5879 5878 5876 5875 5875 5874 5873 5873 5872 5872
5835 5837 5839 5841 5844 5846 5849 5851 5853 5855 5857 5859 5861 5863 5865 5866 5868 5870 5871 5873 5875 5876 5878 5880 5881 5883 5884 5885 5885 5886 5886 5886 5885 5885 5884 5883 5882 5881 5879 5878 5877 5876 5875 5874 5873 5872 5871 5871 5871
5833 5835 5837 5839 5842 5844 5847 5849 5851 5853 5855 5857 5859 5861 5862 5865 5867 5868 5870 5872 5873 5875 5877 5879 5881 5882 5883 5884 5885 5885 5885 5885 5884 5884 5883 5882 5881 5880 5879 5877 5876 5875 5873 5873 5872 5871 5870 5869 5869
5831 5833 5835 5837 5840 5842 5844 5847 5849 5851 5853 5855 5857 5859 5860 5863 5865 5867 5868 5870 5872 5874 5876 5878 5879 5881 5882 5883 5884 5884 5884 5884 5884 5883 5882 5881 5880 5879 5877 5876 5875 5874 5872 5871 5870 5869 5869 5868 5868
5829 5831 5834 5835 5837 5839 5842 5845 5846 5849 5851 5853 5855 5857 5859 5861 5864 5866 5868 5869 5871 5873 5875 5877 5878 5879 5881 5882 5883 5883 5883 5883 5883 5882 5881 5880 5879 5878 5876 5875 5874 5873 5871 5870 5869 5868 5867 5867 5867
5827 5830 5832 5833 5835 5837 5842 5843 5844 5846 5849 5851 5853 5855 5857 5859 5862 5865 5866 5868 5871 5872 5874 5876 5877 5878 5880 5881 5882 5882 5882 5882 5882 5881 5880 5879 5878 5877 5876 5874 5873 5872 5870 5869 5868 5867 5866 5866 5866
5826 5828 5829 5831 5833 5835 5838 5840 5842 5844 5847 5849 5852 5854 5856 5858 5861 5863 5865 5867 5870 5872 5873 5875 5876 5878 5879 5880 5880 5881 5881 5881 5881 5880 5879 5878 5877 5876 5875 5874 5872 5871 5870 5869 5868 5867 5866 5865 5865
5824 5826 5828 5829 5831 5834 5836 5838 5841 5843 5845 5848 5850 5852 5854 5857 5859 5861 5864 5866 5868 5871 5872 5874 5875 5876 5878 5879 5879 5880 5880 5880 5880 5879 5879 5878 5877 5875 5874 5873 5871 5870 5869 5868 5867 5866 5865 5864 5864
5823 5825 5826 5828 5830 5832 5834 5836 5839 5841 5843 5846 5848 5851 5853 5855 5858 5860 5862 5865 5867 5869 5871 5873 5874 5875 5876 5877 5878 5879 5879 5879 5879 5878 5878 5877 5876 5875 5874 5872 5871 5870 5869 5868 5867 5866 5865 5864 5863
5821 5823 5825 5827 5828 5830 5832 5834 5837 5839 5841 5844 5846 5849 5851 5854 5856 5858 5860 5863 5865 5867 5869 5871 5872 5874 5875 5876 5877 5877 5878 5878 5878 5877 5877 5876 5875 5874 5873 5872 5871 5870 5869 5868 5867 5866 5865 5864 5863
5820 5822 5824 5825 5827 5829 5831 5833 5835 5837 5839 5842 5844 5846 5849 5851 5854 5856 5858 5861 5863 5865 5867 5869 5871 5872 5874 5875 5875 5876 5876 5876 5876 5876 5876 5875 5874 5873 5873 5871 5870 5870 5869 5868 5867 5866 5865 5864 5863
5819 5821 5822 5824 5826 5827 5830 5832 5834 5835 5837 5840 5842 5844 5847 5849 5851 5854 5856 5859 5861 5863 5866 5868 5869 5871 5872 5873 5874 5874 5875 5875 5875 5875 5875 5874 5873 5873 5872 5871 5870 5870 5869 5868 5867 5866 5865 5864 5864
5818 5819 5821 5823 5824 5826 5828 5830 5833 5834 5836 5838 5840 5842 5844 5847 5849 5852 5854 5857 5859 5861 5864 5865 5867 5869 5870 5871 5872 5873 5873 5874 5874 5874 5874 5873 5873 5872 5872 5871 5870 5869 5869 5868 5867 5866 5865 5865 5864
5817 5819 5820 5821 5823 5825 5826 5828 5831 5832 5834 5836 5838 5840 5842 5845 5847 5850 5852 5854 5857 5859 5861 5863 5865 5867 5868 5869 5870 5871 5872 5872 5872 5872 5873 5872 5872 5872 5871 5871 5870 5869 5868 5868 5867 5866 5865 5865 5864
5816 5818 5819 5820 5822 5824 5825 5826 5830 5831 5833 5835 5837 5838 5840 5842 5845 5847 5850 5852 5855 5857 5859 5861 5863 5865 5866 5867 5868 5869 5870 5870 5871 5871 5871 5871 5871 5871 5870 5870 5869 5869 5868 5867 5867 5866 5865 5865 5864
5815 5817 5819 5820 5821 5822 5823 5825 5828 5829 5830 5832 5834 5836 5838 5840 5843 5845 5847 5850 5852 5855 5857 5859 5861 5862 5864 5865 5866 5867 5868 5869 5869 5870 5870 5870 5870 5870 5869 5869 5869 5868 5867 5867 5866 5866 5865 5864 5864
5814 5815 5817 5818 5819 5821 5822 5825 5826 5827 5829 5830 5832 5834 5836 5838 5840 5842 5844 5847 5849 5852 5854 5856 5858 5860 5862 5863 5864 5865 5866 5867 5867 5868 5868 5868 5868 5868 5869 5868 5868 5867 5867 5866 5865 5865 5864 5863 5863
5813 5814 5815 5817 5818 5819 5821 5823 5825 5825 5827 5829 5831 5832 5834 5836 5838 5839 5842 5844 5846 5849 5851 5854 5855 5857 5859 5861 5862 5863 5864 5865 5866 5866 5867 5867 5867 5867 5868 5867 5867 5867 5866 5865 5865 5864 5863 5863 5862
5812 5813 5813 5815 5816 5818 5819 5823 5822 5823 5825 5826 5828 5830 5832 5834 5835 5837 5839 5841 5844 5846 5849 5851 5853 5855 5856 5858 5860 5861 5862 5863 5864 5864 5865 5866 5866 5866 5866 5866 5866 5865 5865 5864 5863 5863 5863 5862 5862
5810 5811 5812 5814 5814 5815 5817 5822 5820 5821 5822 5824 5826 5828 5829 5831 5833 5834 5836 5838 5841 5843 5846 5848 5850 5852 5854 5856 5857 5859 5860 5861 5862 5863 5863 5864 5864 5865 5865 5864 5864 5864 5863 5863 5862 5862 5862 5862 5861